When you browse on this site, cookies collect data to enhance your experience and personalize the content and advertising you see.
Visit our Privacy Policy to learn more. By continuing to use the site, you agree to this use of cookies and data.
  • în România
  • Lista ţărilor
  • Pe 7 zile
  • Temperatura apei
  • Hartă satelitară
  • Meteo pe hartă
  • Widget-uri
  • user-avatar
    Intrare

    Meteo pe oră la Ploieşti

    Astăzi, 22 Ianuarie, Marţi

    Timp Temperatura Precipitaţii Vânt Presiune Umiditate
    00:00 -1°C° 0 mm 1 m/s 752 mmHg 91%
    01:00 -1°C° 0 mm 1 m/s 752 mmHg 91%
    02:00 -2°C° 0 mm 1 m/s 752 mmHg 92%
    03:00 -2°C° 0 mm 1 m/s 752 mmHg 92%
    04:00 -2°C° 0 mm 1 m/s 751 mmHg 92%
    05:00 -5°C° 0 mm 2 m/s 751 mmHg 91%
    06:00 -5°C° 0 mm 2 m/s 751 mmHg 91%
    07:00 -5°C° 0 mm 2 m/s 750 mmHg 91%
    08:00 -5°C° 0 mm 2 m/s 750 mmHg 90%
    09:00 -4°C° 0 mm 2 m/s 750 mmHg 86%
    10:00 -4°C° 0 mm 2 m/s 749 mmHg 83%
    11:00 -4°C° 0 mm 3 m/s 749 mmHg 79%
    12:00 -4°C° 0.1 mm 3 m/s 748 mmHg 81%
    13:00 -2°C° 0.1 mm 3 m/s 748 mmHg 83%
    14:00 -2°C° 0.1 mm 3 m/s 747 mmHg 85%
    15:00 -2°C° 0.2 mm 3 m/s 746 mmHg 86%
    16:00 -2°C° 0.2 mm 3 m/s 746 mmHg 88%
    17:00 -2°C° 0.2 mm 3 m/s 745 mmHg 90%
    18:00 -2°C° 0.4 mm 3 m/s 745 mmHg 91%
    19:00 -3°C° 0.4 mm 4 m/s 744 mmHg 92%
    20:00 -2°C° 0.4 mm 4 m/s 744 mmHg 93%
    21:00 -2°C° 0.7 mm 4 m/s 743 mmHg 94%
    22:00 -1°C° 0.7 mm 3 m/s 743 mmHg 95%
    23:00 -1°C° 0.7 mm 3 m/s 742 mmHg 95%

    Mâine, 23 Ianuarie, Miercuri

    Timp Temperatura Precipitaţii Vânt Presiune Umiditate
    00:00 -1°C° 0.5 mm 3 m/s 742 mmHg 96%
    01:00 0°C° 0.5 mm 3 m/s 741 mmHg 96%
    02:00 0°C° 0.5 mm 3 m/s 740 mmHg 96%
    03:00 0°C° 0.2 mm 3 m/s 740 mmHg 96%
    04:00 0°C° 0.2 mm 3 m/s 739 mmHg 97%
    05:00 +1°C° 0.2 mm 2 m/s 738 mmHg 98%
    06:00 +2°C° 0.4 mm 2 m/s 738 mmHg 98%
    07:00 +2°C° 0.4 mm 2 m/s 737 mmHg 98%
    08:00 +3°C° 0.4 mm 1 m/s 737 mmHg 98%
    09:00 +3°C° 0.1 mm 1 m/s 737 mmHg 98%
    10:00 +4°C° 0.1 mm 1 m/s 737 mmHg 98%
    11:00 +3°C° 0.1 mm 2 m/s 737 mmHg 99%
    12:00 +3°C° 0 mm 2 m/s 737 mmHg 98%
    13:00 +4°C° 0 mm 2 m/s 737 mmHg 97%
    14:00 +3°C° 0 mm 3 m/s 737 mmHg 97%
    15:00 +2°C° 0 mm 3 m/s 737 mmHg 95%
    16:00 +3°C° 0 mm 2 m/s 737 mmHg 93%
    17:00 +2°C° 0 mm 2 m/s 737 mmHg 91%
    18:00 +2°C° 0 mm 2 m/s 737 mmHg 87%
    19:00 +2°C° 0 mm 1 m/s 737 mmHg 84%
    20:00 +2°C° 0 mm 1 m/s 737 mmHg 80%
    21:00 +2°C° 0 mm 1 m/s 737 mmHg 77%
    22:00 +3°C° 0 mm 1 m/s 737 mmHg 74%
    23:00 +3°C° 0 mm 1 m/s 737 mmHg 70%

    Poimâine, 24 Ianuarie, Joi

    Timp Temperatura Precipitaţii Vânt Presiune Umiditate
    00:00 +2°C° 0 mm 2 m/s 737 mmHg 72%
    01:00 +2°C° 0 mm 2 m/s 737 mmHg 73%
    02:00 +1°C° 0 mm 3 m/s 737 mmHg 74%
    03:00 +1°C° 0.5 mm 3 m/s 736 mmHg 79%
    04:00 0°C° 0.5 mm 4 m/s 736 mmHg 84%
    05:00 0°C° 0.5 mm 4 m/s 736 mmHg 88%
    06:00 0°C° 0.5 mm 5 m/s 736 mmHg 89%
    07:00 0°C° 0.5 mm 5 m/s 736 mmHg 91%
    08:00 0°C° 0.5 mm 5 m/s 736 mmHg 92%
    09:00 -1°C° 0.4 mm 6 m/s 736 mmHg 91%
    10:00 -1°C° 0.4 mm 6 m/s 736 mmHg 90%
    11:00 -1°C° 0.4 mm 6 m/s 736 mmHg 89%
    12:00 -1°C° 2 mm 6 m/s 736 mmHg 89%
    13:00 -1°C° 2 mm 6 m/s 736 mmHg 89%
    14:00 -1°C° 2 mm 6 m/s 736 mmHg 89%
    15:00 +1°C° 0.2 mm 6 m/s 736 mmHg 88%
    16:00 +1°C° 0.2 mm 6 m/s 736 mmHg 86%
    17:00 +1°C° 0.2 mm 6 m/s 736 mmHg 85%
    18:00 +1°C° 0.3 mm 6 m/s 737 mmHg 86%
    19:00 +1°C° 0.3 mm 6 m/s 737 mmHg 86%
    20:00 +1°C° 0.3 mm 6 m/s 737 mmHg 87%
    21:00 +1°C° 0.4 mm 5 m/s 738 mmHg 87%
    22:00 +1°C° 0.4 mm 5 m/s 738 mmHg 86%
    23:00 +1°C° 0.4 mm 4 m/s 738 mmHg 86%

    25 Ianuarie, Vineri

    Timp Temperatura Precipitaţii Vânt Presiune Umiditate
    00:00 0°C° 0.3 mm 5 m/s 738 mmHg 86%
    01:00 0°C° 0.3 mm 5 m/s 738 mmHg 87%
    02:00 0°C° 0.3 mm 5 m/s 738 mmHg 87%
    03:00 0°C° 0.6 mm 5 m/s 738 mmHg 87%
    04:00 0°C° 0.6 mm 5 m/s 738 mmHg 87%
    05:00 0°C° 0.6 mm 4 m/s 738 mmHg 87%
    06:00 0°C° 0.2 mm 4 m/s 738 mmHg 87%
    07:00 0°C° 0.2 mm 4 m/s 739 mmHg 87%
    08:00 0°C° 0.2 mm 4 m/s 739 mmHg 87%
    09:00 0°C° 0.7 mm 4 m/s 739 mmHg 88%
    10:00 +1°C° 0.7 mm 3 m/s 739 mmHg 88%
    11:00 +2°C° 0.7 mm 3 m/s 739 mmHg 89%
    12:00 +2°C° 0.1 mm 3 m/s 739 mmHg 89%
    13:00 +2°C° 0.1 mm 3 m/s 739 mmHg 89%
    14:00 +1°C° 0.1 mm 4 m/s 739 mmHg 89%
    15:00 +1°C° 0 mm 4 m/s 739 mmHg 88%
    16:00 0°C° 0 mm 4 m/s 739 mmHg 87%
    17:00 0°C° 0 mm 4 m/s 739 mmHg 86%
    18:00 0°C° 1.3 mm 5 m/s 739 mmHg 86%
    19:00 0°C° 1.3 mm 5 m/s 739 mmHg 87%
    20:00 0°C° 1.3 mm 5 m/s 739 mmHg 88%
    21:00 0°C° 0.8 mm 5 m/s 739 mmHg 88%
    22:00 0°C° 0.8 mm 5 m/s 739 mmHg 89%
    23:00 0°C° 0.8 mm 5 m/s 739 mmHg 89%

    26 Ianuarie, Sâmbătă

    Timp Temperatura Precipitaţii Vânt Presiune Umiditate
    00:00 0°C° 0.4 mm 5 m/s 738 mmHg 88%
    01:00 -1°C° 0.4 mm 6 m/s 738 mmHg 87%
    02:00 -1°C° 0.4 mm 6 m/s 738 mmHg 86%
    03:00 -1°C° 1.1 mm 6 m/s 738 mmHg 87%
    04:00 -1°C° 1.1 mm 6 m/s 737 mmHg 88%
    05:00 -1°C° 1.1 mm 6 m/s 737 mmHg 89%
    06:00 0°C° 1.2 mm 5 m/s 737 mmHg 89%
    07:00 0°C° 1.2 mm 5 m/s 738 mmHg 89%
    08:00 0°C° 1.2 mm 5 m/s 738 mmHg 89%
    09:00 0°C° 0.4 mm 4 m/s 738 mmHg 89%
    10:00 0°C° 0.4 mm 4 m/s 738 mmHg 90%
    11:00 +1°C° 0.4 mm 3 m/s 738 mmHg 90%
    12:00 +1°C° 0 mm 3 m/s 738 mmHg 88%
    13:00 +1°C° 0 mm 4 m/s 738 mmHg 86%
    14:00 +3°C° 0 mm 4 m/s 738 mmHg 84%
    15:00 +1°C° 0.1 mm 4 m/s 738 mmHg 84%
    16:00 +2°C° 0.1 mm 3 m/s 738 mmHg 85%
    17:00 +1°C° 0.1 mm 3 m/s 738 mmHg 86%
    18:00 +1°C° 0.1 mm 3 m/s 738 mmHg 87%
    19:00 +1°C° 0.1 mm 2 m/s 738 mmHg 87%
    20:00 +1°C° 0.1 mm 2 m/s 739 mmHg 87%
    21:00 +1°C° 0.3 mm 2 m/s 739 mmHg 87%
    22:00 +1°C° 0.3 mm 2 m/s 739 mmHg 87%
    23:00 +2°C° 0.3 mm 1 m/s 739 mmHg 87%

    27 Ianuarie, Duminică

    Timp Temperatura Precipitaţii Vânt Presiune Umiditate
    00:00 +2°C° 0.4 mm 1 m/s 739 mmHg 88%
    01:00 +2°C° 0.4 mm 1 m/s 739 mmHg 89%
    02:00 +2°C° 0.4 mm 1 m/s 739 mmHg 90%
    03:00 +2°C° 0.5 mm 1 m/s 739 mmHg 91%
    04:00 +1°C° 0.5 mm 1 m/s 738 mmHg 93%
    05:00 +1°C° 0.5 mm 1 m/s 738 mmHg 95%
    06:00 +1°C° 0.1 mm 1 m/s 739 mmHg 94%
    07:00 +1°C° 0.1 mm 1 m/s 739 mmHg 93%
    08:00 +2°C° 0.1 mm 1 m/s 739 mmHg 92%
    09:00 +2°C° 0.1 mm 1 m/s 739 mmHg 92%
    10:00 +2°C° 0.1 mm 1 m/s 739 mmHg 92%
    11:00 +2°C° 0.1 mm 1 m/s 739 mmHg 92%
    12:00 +3°C° 0.1 mm 1 m/s 739 mmHg 93%
    13:00 +3°C° 0.1 mm 1 m/s 739 mmHg 94%
    14:00 +3°C° 0.1 mm 1 m/s 739 mmHg 95%
    15:00 +3°C° 0.5 mm 1 m/s 739 mmHg 96%
    16:00 +2°C° 0.5 mm 1 m/s 739 mmHg 97%
    17:00 +2°C° 0.5 mm 1 m/s 740 mmHg 98%
    18:00 +1°C° 0.5 mm 0 m/s 740 mmHg 98%
    19:00 +1°C° 0.5 mm 0 m/s 740 mmHg 97%
    20:00 +1°C° 0.5 mm 0 m/s 741 mmHg 97%
    21:00 +1°C° 0.2 mm 0 m/s 741 mmHg 97%
    22:00 +1°C° 0.2 mm 0 m/s 742 mmHg 97%
    23:00 +1°C° 0.2 mm 0 m/s 742 mmHg 97%
    Arată mai mult